Temp_Advection
nan nan nan nan nan nan nan nan nan nan nan nan nan nan nan nan nan nan nan nan nan nan nan nan nan nan nan nan nan nan nan nan nan nan nan nan nan nan nan nan nan nan nan
nan 0 0 0 -0 -1 -1 -0 -0 0 1 1 1 1 1 1 1 1 1 0 -0 0 -0 -0 0 0 0 1 1 0 0 -0 -0 0 0 0 0 0 1 0 -0 0 nan
nan -0 -0 0 0 0 0 -1 -0 0 1 1 1 0 0 1 1 1 1 -0 -0 0 -0 -0 0 0 0 1 0 -0 -0 -0 0 -0 0 0 0 1 0 -0 0 0 nan
nan -0 -0 -1 -0 -0 0 0 -0 -0 0 1 1 1 0 1 1 0 0 0 -0 0 -0 0 0 0 0 1 -0 -0 0 0 0 0 0 0 1 1 -0 -0 -0 0 nan
nan -1 -1 -1 -1 -1 0 -0 0 0 -1 1 2 1 0 1 0 0 0 0 -0 -0 0 -0 0 0 0 0 0 0 0 0 0 -0 0 1 -0 -1 -0 0 -0 1 nan
nan -1 -1 -1 -1 -1 -0 -0 1 1 1 1 1 0 1 0 0 -0 0 0 -0 -0 0 0 0 0 0 0 0 -0 0 0 -0 -0 0 -0 -0 -0 0 0 0 1 nan
nan -0 -1 -1 -0 -1 -1 -1 -0 1 2 1 2 1 0 0 -0 -0 0 0 0 0 0 0 0 0 0 0 -0 0 0 0 0 0 0 0 0 0 0 -0 0 0 nan
nan -1 -1 -0 -0 -0 -0 -1 -1 -0 0 1 2 2 1 0 0 0 0 0 0 0 0 0 0 0 0 0 0 0 0 0 0 0 0 0 0 0 0 0 0 0 nan
nan -1 -0 -0 -0 -0 -0 -1 0 0 -1 -1 -1 0 1 1 2 2 1 0 0 1 0 0 0 1 0 0 1 1 0 0 0 0 1 1 0 0 0 0 1 1 nan
nan -0 -0 -0 0 -0 -1 -0 -0 -0 -0 0 0 -0 -1 -0 0 -0 1 1 2 1 1 1 1 1 1 1 1 1 1 1 1 2 2 1 1 2 1 1 2 1 nan
nan -0 -0 -0 -0 -1 -0 -0 -0 -0 -0 -0 -0 -0 -0 -0 -1 -1 0 1 1 1 1 1 1 1 1 2 1 1 1 2 2 1 1 1 1 1 0 1 1 1 nan
nan 0 -0 -0 -0 -0 -0 -0 -0 0 -0 -1 -1 -0 -0 -0 -0 0 -0 0 0 0 0 0 0 0 0 0 0 1 1 1 1 1 0 0 0 1 1 0 0 0 nan
nan -0 -0 0 -0 -0 -0 -0 -0 -0 -1 -1 -1 -1 -0 -0 -0 -0 0 0 0 0 0 0 0 0 0 0 0 1 0 0 1 1 0 0 0 0 1 1 0 0 nan
nan -0 -0 -0 -1 -1 -1 -0 -1 -1 -1 -0 -0 -1 -0 -0 -0 -0 0 0 0 -0 -0 0 0 0 1 0 0 0 0 0 0 0 0 0 0 0 0 0 0 0 nan
nan -1 -1 -1 -1 -1 -1 -1 -1 -0 -0 -0 -0 -0 -0 -0 -0 -0 -0 -0 -0 -0 0 0 0 0 0 0 0 0 0 0 0 0 0 0 0 0 0 0 0 0 nan
nan -1 -1 -1 -1 -1 -1 -0 -0 -0 -0 -0 -0 -0 -0 -0 0 0 -0 -0 -0 0 0 -0 -0 0 0 0 0 0 0 0 0 0 0 0 0 0 0 0 0 -0 nan
nan -1 -0 -0 -1 -1 -0 -0 -1 -0 -0 -0 -0 -0 -0 -0 -0 -0 -0 -0 -0 -0 0 -0 -0 -0 -0 0 0 0 0 -0 0 0 0 0 0 0 0 0 0 0 nan
nan -0 -0 -1 -1 -0 -0 -1 -0 -0 -0 -0 -0 -0 -0 -0 -0 -0 -0 -0 -0 -0 -0 -0 -0 -0 -0 -0 -0 0 0 0 0 0 0 0 0 0 0 0 0 0 nan
nan -0 -0 -0 -0 -0 -0 -0 -1 -1 -0 -0 -0 -0 -0 -0 -0 -0 -0 -0 -0 -0 -0 -0 -0 -0 -0 -0 -0 -0 -0 0 -0 -0 0 0 -0 -0 0 0 0 0 nan
nan -0 -0 -0 -0 -0 -0 -0 -0 -1 -0 -0 -0 -0 -0 -0 -0 -0 -0 -0 -0 -0 -0 -0 -0 -0 -0 -0 -0 -0 -0 -0 -0 -0 -0 -0 -0 -0 -0 -0 -0 -0 nan
nan -0 -0 -0 -0 -0 -0 -0 -0 -0 -1 -0 -0 -1 -1 -0 -0 -0 -0 -0 -0 -0 -0 -0 -0 -0 -0 -0 -0 -0 -0 -0 -0 -0 -0 -0 -0 -0 -0 -0 -0 -0 nan
nan -0 -0 -0 -0 -0 -0 -0 -0 -0 -0 -0 -0 -1 -1 -1 -0 -0 -0 -0 -0 -0 -0 -0 -0 -0 -0 -0 -0 -0 -0 -0 0 0 0 0 0 -0 -0 -0 -0 -0 nan
nan -0 -0 -0 -0 -0 -0 -0 -0 -0 -0 -0 -0 -0 -0 -0 -0 -0 -0 -0 -0 -0 -0 -0 -0 -0 -0 -0 -0 -0 -0 -0 -0 -0 -0 -0 -0 -0 -0 -0 -0 -0 nan
nan -0 -0 -0 -0 -0 -0 -0 -0 -0 -0 -0 -0 -0 -0 -0 -0 -0 -0 -0 -0 -0 -0 -0 -0 -0 -0 -0 -0 -0 -0 -0 -0 -0 -0 -0 -0 -0 -0 -0 -0 -0 nan
nan -0 -0 -0 -0 -0 -0 -0 -0 -0 -0 -0 -0 -0 -0 -0 -0 -0 -0 -0 -0 -0 -0 -0 -0 -0 -0 -0 -0 -0 -0 -0 -0 -0 0 -0 -0 -0 0 0 -0 -0 nan
nan nan nan nan nan nan nan nan nan nan nan nan nan nan nan nan nan nan nan nan nan nan nan nan nan nan nan nan nan nan nan nan nan nan nan nan nan nan nan nan nan nan nan
Wind_Speed
7 6 12 22 26 26 35 38 36 36 34 32 26 26 28 29 32 33 29 28 25 24 29 37 28 33 39 44 46 38 31 29 27 27 29 29 29 24 23 22 22 21 21
11 5 3 10 14 22 26 30 29 32 32 31 29 26 27 27 30 27 27 23 24 24 28 34 32 35 36 50 43 42 35 32 28 26 24 28 25 26 23 22 23 25 24
17 11 7 5 11 15 14 23 27 29 31 33 32 29 28 26 26 26 23 21 22 23 26 32 34 37 33 40 46 40 35 32 29 27 27 23 23 24 27 30 30 28 20
20 16 12 8 5 10 18 19 21 28 32 33 34 31 26 24 24 23 21 19 18 18 22 33 32 34 39 44 42 36 35 31 32 32 31 30 30 28 32 29 29 28 24
24 19 16 14 9 8 13 17 22 28 29 32 31 25 20 20 22 23 21 18 19 19 16 24 33 34 27 29 35 41 34 33 34 38 35 30 29 31 32 31 31 26 26
34 28 23 20 17 11 8 8 20 29 29 34 25 25 20 22 25 24 24 23 21 22 24 22 21 22 22 24 26 28 31 32 36 37 32 36 32 30 25 24 24 26 26
34 35 31 26 23 20 15 8 11 12 23 24 29 24 20 20 21 23 22 24 25 27 27 27 29 28 29 33 33 29 32 30 29 28 29 31 30 28 28 27 27 29 30
30 30 31 32 30 27 23 17 13 6 4 8 16 19 23 23 21 22 23 23 25 25 27 29 26 31 34 30 31 31 30 29 30 28 29 29 27 26 27 27 28 28 29
28 27 27 27 28 28 30 27 24 20 15 12 8 3 9 15 23 25 25 25 26 25 24 27 27 27 28 27 26 28 30 28 25 27 29 32 31 30 29 28 27 26 26
25 23 21 21 22 24 24 24 23 23 21 19 17 16 16 5 4 4 20 23 27 25 23 21 25 23 22 23 24 26 27 24 24 27 27 30 32 31 31 28 26 23 24
23 20 19 19 20 20 18 18 19 19 18 18 18 16 15 17 16 11 7 8 9 15 14 12 12 14 17 16 15 18 20 21 17 14 11 8 7 8 8 9 10 12 12
23 22 22 22 20 18 16 15 15 16 17 19 18 18 16 17 17 13 13 12 15 11 12 13 14 8 6 7 10 13 10 9 12 11 8 7 6 6 6 3 2 4 8
21 24 24 22 22 20 17 17 16 15 16 17 17 19 20 19 14 11 12 9 10 11 15 14 12 8 8 9 8 8 8 8 9 10 9 8 6 7 7 7 6 4 3
19 20 22 23 22 20 18 18 17 18 17 15 15 17 17 17 17 16 14 14 12 12 13 10 12 11 13 14 12 10 10 8 7 11 12 12 11 10 7 7 6 5 3
17 18 19 19 20 19 17 16 16 16 15 14 14 13 14 15 15 13 12 12 11 11 9 11 13 12 13 14 14 13 12 11 11 12 11 7 6 6 5 3 2 1 2
16 16 16 16 17 16 15 14 13 13 10 9 10 11 11 10 9 10 9 8 9 8 6 9 11 10 10 11 9 9 8 7 7 7 6 5 5 4 4 3 0 1 1
15 15 15 14 14 14 14 12 12 10 8 7 7 6 6 7 7 7 7 8 7 6 5 7 8 8 8 7 5 5 5 5 4 3 3 3 2 2 2 2 2 1 1
14 13 14 14 13 12 12 12 12 10 8 6 4 5 5 5 5 4 4 5 3 4 6 6 6 6 5 4 5 5 4 4 4 3 3 3 4 3 2 2 1 1 1
15 13 13 13 13 12 12 12 13 13 11 9 7 7 7 7 6 6 5 3 4 4 5 5 6 5 5 5 5 4 4 3 3 2 2 2 3 2 2 1 2 2 2
13 13 13 13 13 12 12 12 13 12 10 8 8 9 9 8 6 5 4 4 4 4 4 3 3 3 3 3 3 3 2 2 1 1 1 1 2 2 1 1 2 2 3
13 14 14 14 13 11 11 11 12 12 12 10 10 10 10 9 7 6 4 3 3 3 3 2 2 2 2 2 2 2 2 2 1 1 1 1 2 2 3 3 4 5 6
13 14 14 14 13 12 10 11 11 10 10 11 12 12 11 10 8 7 6 5 4 3 2 2 2 2 2 2 3 3 3 2 2 3 4 3 3 4 5 6 6 7 8
14 14 14 13 12 11 11 10 10 9 9 9 10 11 11 10 9 7 6 5 4 4 3 3 2 3 3 3 3 3 3 3 3 3 4 4 5 5 6 7 9 9 10
13 13 12 12 11 11 11 11 10 10 10 9 9 9 10 10 10 9 8 7 6 4 4 4 4 4 4 4 4 5 5 4 4 5 6 5 6 7 7 7 8 9 9
12 12 12 11 10 9 8 9 9 12 12 12 11 10 10 10 10 10 10 9 7 5 4 3 4 5 5 6 7 7 7 6 6 6 7 7 7 8 8 8 9 10 10
12 12 12 11 10 10 10 10 9 11 11 12 12 11 11 11 11 12 11 11 9 8 6 5 6 6 6 6 7 9 10 8 8 8 8 8 9 9 9 9 10 10 10
Wind_Direction
352 312 253 236 237 241 243 241 242 246 250 245 238 239 237 236 243 246 242 248 245 248 256 227 223 229 220 213 210 204 204 208 218 232 229 235 237 238 239 240 247 246 249
31 36 220 243 238 244 244 239 241 244 247 243 233 235 238 243 249 232 242 242 240 245 252 249 247 224 227 218 208 205 205 210 218 216 214 211 219 221 235 236 234 242 246
27 24 20 198 219 217 223 248 243 248 250 242 234 230 236 248 236 231 238 236 241 244 251 250 243 230 224 216 206 203 207 211 219 219 211 224 219 234 240 246 257 235 251
31 23 11 354 281 253 236 235 255 256 252 242 234 227 237 250 224 231 236 229 236 233 248 244 230 233 231 217 206 202 204 217 221 229 229 244 248 236 235 239 229 236 254
32 34 27 11 352 261 249 254 246 248 261 235 222 222 231 225 226 228 233 237 233 238 242 246 235 223 222 224 226 216 214 223 230 235 237 240 240 237 239 238 241 248 245
40 37 40 31 19 350 276 264 232 223 218 209 208 213 211 224 227 230 232 232 234 236 237 234 232 232 221 223 223 229 239 233 234 235 240 242 238 244 242 242 241 239 243
46 43 39 45 42 30 7 321 254 206 209 192 196 201 212 220 228 230 235 238 236 234 239 235 237 225 230 236 233 244 238 235 240 245 242 240 243 248 248 243 239 243 252
44 45 45 44 50 52 48 36 37 35 90 182 187 190 205 213 216 227 233 238 237 235 239 235 241 238 238 243 240 242 240 241 237 239 237 237 232 236 240 241 245 247 252
40 37 40 45 44 47 56 57 56 50 41 37 31 156 193 201 213 224 228 232 233 233 235 237 236 234 235 240 247 247 238 235 239 241 238 236 236 238 239 244 242 238 233
35 32 35 37 44 46 43 46 50 58 65 57 56 43 31 45 102 243 217 222 223 220 223 227 232 223 226 232 236 237 236 227 231 237 234 234 235 239 247 245 240 237 237
30 28 31 36 41 40 47 48 46 50 58 64 63 66 66 58 59 45 75 170 186 187 185 191 202 202 209 210 208 217 225 212 203 199 204 208 202 216 219 228 231 234 231
36 37 36 34 35 39 43 47 57 57 55 63 63 67 70 75 77 71 67 83 88 92 106 110 106 104 120 145 171 175 178 178 171 160 157 151 160 156 158 175 244 251 244
30 36 38 38 38 40 39 47 50 49 58 59 57 60 61 61 62 67 74 72 75 101 103 105 103 99 115 136 150 159 153 166 162 143 145 143 141 130 113 114 112 116 151
27 31 33 36 38 40 47 51 55 56 56 60 62 60 62 62 58 58 63 69 78 83 92 99 103 116 118 120 129 129 128 129 113 114 119 124 126 116 121 136 137 142 161
23 27 29 31 33 36 37 44 51 61 59 56 53 54 50 54 47 49 56 63 62 67 89 100 98 100 104 108 110 109 105 104 108 109 112 121 123 128 134 115 108 176 176
23 25 24 24 27 31 34 35 38 41 44 66 71 57 57 60 50 41 39 50 61 67 72 89 99 104 105 104 108 112 116 115 109 104 110 121 138 160 161 154 141 17 35
22 19 18 18 18 18 26 33 37 37 30 19 24 38 39 37 31 32 32 28 26 44 72 89 97 94 95 99 103 102 106 109 108 120 143 162 162 164 165 173 185 209 22
4 7 6 5 3 5 8 7 4 360 2 4 10 8 6 20 24 29 42 29 54 76 67 78 82 84 88 90 93 93 96 106 117 117 132 137 135 122 133 156 216 244 259
358 360 359 353 349 352 352 349 344 345 343 341 343 341 351 4 5 3 19 27 49 62 63 61 69 72 75 70 70 74 76 80 87 90 93 82 84 90 125 178 220 245 266
342 347 350 351 347 340 340 340 346 354 356 349 345 351 354 356 342 1 12 26 35 41 50 46 61 65 64 59 47 44 42 35 43 46 0 14 41 42 25 25 339 312 313
333 335 339 341 345 343 336 339 347 352 355 358 358 358 3 359 358 358 358 5 16 22 18 16 8 15 22 11 353 348 320 302 304 311 301 314 334 334 337 343 340 342 349
325 325 327 329 330 331 332 334 337 345 351 352 357 359 0 354 356 357 355 349 345 342 346 343 348 337 325 311 310 309 301 293 278 265 264 273 287 309 321 324 326 328 335
315 318 323 323 323 322 325 327 327 331 337 345 351 355 358 1 3 2 356 343 345 348 345 329 314 294 291 293 309 310 304 299 296 296 298 298 302 307 312 312 312 314 319
309 312 314 314 313 315 317 318 319 323 326 330 335 338 344 350 354 358 360 360 355 349 350 334 329 322 310 302 296 295 297 294 288 290 291 294 298 298 299 300 300 306 314
308 313 316 312 307 310 312 302 298 312 318 323 327 330 333 337 343 348 352 356 352 349 350 344 330 313 304 300 299 298 298 299 292 286 284 284 285 285 287 289 294 302 304
314 312 309 311 310 303 289 284 286 294 296 299 305 312 317 321 324 326 328 332 327 321 325 310 318 313 309 306 298 292 290 287 279 279 279 278 277 282 287 292 295 297 299
Height
1393 1392 1391 1391 1394 1397 1400 1404 1409 1413 1416 1420 1422 1424 1426 1428 1430 1432 1434 1435 1437 1439 1440 1438 1440 1445 1449 1453 1459 1464 1469 1474 1478 1483 1487 1492 1494 1498 1501 1504 1507 1509 1511
1391 1390 1389 1390 1391 1394 1396 1399 1403 1407 1410 1413 1416 1419 1421 1422 1423 1426 1428 1430 1432 1433 1435 1436 1436 1438 1443 1447 1452 1458 1464 1469 1473 1478 1482 1487 1490 1493 1496 1499 1501 1504 1506
1388 1388 1389 1389 1389 1390 1391 1395 1398 1401 1403 1406 1409 1412 1414 1415 1416 1420 1423 1425 1427 1429 1430 1431 1433 1436 1439 1443 1447 1453 1460 1464 1468 1473 1477 1482 1483 1488 1491 1493 1495 1498 1499
1391 1389 1388 1387 1387 1389 1389 1390 1393 1395 1397 1400 1402 1405 1408 1409 1412 1417 1419 1421 1423 1425 1428 1426 1428 1432 1434 1438 1443 1448 1454 1459 1464 1468 1471 1474 1477 1481 1483 1486 1488 1491 1491
1394 1391 1390 1389 1388 1387 1386 1387 1388 1392 1392 1394 1396 1399 1402 1405 1408 1412 1415 1417 1419 1421 1425 1425 1425 1426 1432 1437 1441 1444 1449 1454 1457 1460 1463 1466 1469 1472 1474 1476 1480 1483 1484
1398 1396 1391 1391 1387 1386 1386 1385 1384 1385 1386 1386 1390 1396 1396 1401 1404 1408 1411 1414 1416 1418 1422 1424 1426 1427 1429 1433 1437 1441 1443 1445 1447 1451 1453 1456 1459 1464 1466 1469 1471 1474 1477
1404 1402 1399 1394 1389 1389 1386 1384 1386 1380 1382 1382 1381 1391 1392 1396 1400 1404 1407 1410 1411 1413 1416 1419 1421 1423 1427 1429 1430 1434 1436 1436 1440 1444 1445 1448 1452 1455 1459 1460 1464 1467 1469
1412 1410 1406 1402 1398 1394 1391 1390 1388 1388 1387 1378 1384 1384 1389 1391 1394 1400 1403 1406 1406 1407 1410 1413 1415 1419 1421 1422 1425 1426 1427 1429 1432 1436 1438 1441 1444 1447 1451 1453 1456 1458 1460
1418 1416 1413 1410 1407 1404 1399 1396 1395 1391 1389 1392 1389 1388 1388 1386 1391 1396 1399 1399 1401 1402 1405 1406 1409 1411 1413 1417 1418 1419 1419 1423 1425 1428 1431 1434 1437 1440 1443 1445 1447 1450 1451
1422 1422 1420 1417 1412 1409 1407 1404 1401 1400 1400 1399 1394 1393 1389 1390 1388 1395 1392 1393 1396 1396 1399 1401 1404 1404 1406 1410 1412 1415 1415 1415 1418 1421 1424 1426 1429 1432 1434 1436 1437 1441 1442
1430 1428 1425 1421 1418 1415 1413 1412 1410 1406 1403 1402 1399 1398 1399 1398 1394 1400 1397 1393 1393 1390 1393 1396 1399 1402 1401 1405 1409 1411 1414 1412 1413 1416 1420 1423 1423 1426 1427 1430 1434 1436 1438
1437 1434 1429 1425 1422 1420 1419 1418 1415 1414 1411 1408 1410 1408 1407 1401 1398 1402 1398 1401 1395 1398 1396 1396 1399 1403 1404 1406 1409 1411 1414 1416 1414 1412 1417 1420 1425 1425 1425 1427 1430 1434 1436
1441 1437 1433 1430 1427 1425 1425 1422 1420 1418 1415 1413 1415 1416 1412 1408 1411 1411 1401 1405 1403 1405 1402 1400 1404 1407 1406 1407 1412 1415 1414 1420 1418 1411 1416 1419 1423 1427 1427 1423 1429 1434 1439
1445 1441 1437 1434 1432 1431 1429 1428 1426 1425 1423 1424 1422 1418 1416 1416 1419 1418 1415 1411 1410 1410 1406 1412 1407 1411 1410 1408 1413 1418 1419 1422 1419 1416 1418 1421 1424 1423 1428 1429 1431 1435 1441
1448 1445 1443 1441 1438 1437 1436 1434 1433 1431 1431 1430 1427 1424 1422 1420 1421 1419 1420 1419 1420 1418 1417 1416 1413 1416 1417 1416 1418 1419 1420 1422 1422 1419 1419 1425 1424 1424 1430 1434 1432 1437 1438
1451 1449 1447 1445 1443 1442 1441 1440 1438 1437 1435 1433 1431 1429 1429 1429 1427 1426 1427 1426 1425 1423 1421 1419 1421 1421 1422 1421 1422 1422 1423 1425 1424 1423 1424 1426 1428 1429 1429 1433 1435 1437 1438
1455 1453 1451 1449 1448 1447 1445 1444 1442 1440 1439 1437 1435 1434 1434 1433 1430 1429 1429 1426 1427 1428 1425 1425 1425 1424 1424 1424 1426 1426 1425 1426 1427 1427 1428 1430 1431 1431 1432 1434 1433 1434 1437
1457 1456 1454 1453 1451 1450 1448 1447 1446 1444 1443 1442 1440 1439 1437 1436 1434 1433 1432 1430 1429 1429 1427 1426 1426 1425 1427 1428 1428 1428 1428 1429 1429 1430 1431 1431 1432 1431 1433 1434 1437 1436 1435
1459 1458 1457 1455 1453 1451 1450 1448 1447 1445 1443 1442 1440 1439 1437 1435 1434 1432 1431 1431 1430 1429 1429 1428 1427 1428 1429 1430 1429 1429 1430 1431 1431 1432 1433 1432 1432 1432 1433 1435 1436 1438 1436
1461 1459 1457 1456 1454 1452 1451 1449 1447 1445 1443 1441 1440 1438 1437 1436 1435 1433 1432 1431 1430 1430 1430 1431 1431 1431 1431 1430 1431 1431 1432 1432 1433 1433 1434 1433 1431 1433 1436 1435 1437 1437 1436
1461 1459 1457 1456 1454 1452 1451 1449 1448 1446 1444 1442 1440 1438 1437 1435 1434 1433 1433 1433 1433 1432 1432 1432 1432 1431 1431 1431 1432 1432 1433 1434 1433 1434 1435 1434 1434 1435 1435 1435 1436 1437 1436
1460 1458 1457 1455 1453 1452 1451 1449 1448 1446 1444 1442 1440 1439 1437 1436 1435 1434 1433 1433 1433 1433 1433 1433 1432 1432 1432 1432 1433 1433 1433 1433 1434 1435 1435 1435 1435 1434 1434 1434 1433 1435 1435
1459 1457 1455 1454 1453 1451 1450 1449 1447 1446 1445 1443 1442 1440 1439 1437 1435 1435 1434 1433 1433 1433 1432 1432 1433 1433 1433 1432 1432 1433 1433 1433 1433 1433 1432 1433 1433 1432 1432 1433 1433 1433 1433
1457 1455 1454 1453 1451 1450 1449 1448 1447 1446 1444 1443 1442 1441 1439 1438 1437 1436 1435 1434 1433 1433 1433 1432 1432 1432 1432 1431 1430 1431 1433 1432 1430 1431 1432 1431 1431 1431 1431 1431 1432 1432 1431
1455 1454 1452 1451 1450 1449 1448 1447 1446 1445 1444 1442 1441 1440 1439 1438 1437 1436 1435 1434 1433 1433 1432 1432 1431 1431 1430 1430 1429 1429 1430 1429 1428 1429 1430 1430 1430 1430 1430 1431 1431 1431 1429
1454 1452 1450 1449 1448 1447 1446 1445 1445 1443 1443 1442 1440 1439 1438 1437 1436 1435 1434 1433 1432 1431 1431 1431 1430 1429 1429 1428 1428 1427 1427 1428 1428 1428 1429 1429 1429 1429 1428 1428 1428 1428 1426